• In Uzbekistan
  • List of Countries
  • For 7 days
  • Water Temperature
  • Weather Map
  • Weather Widgets
  • user-avatar
    Login

    Hourly Weather Berezanka

    Today, 26 February, Wednesday

    Time Temperature Precipitation Wind Pressure Humidity
    00:00 +3°C° 0 mm 6 mps 754 mmHg 84%
    01:00 +3°C° 0 mm 6 mps 754 mmHg 86%
    02:00 +3°C° 0 mm 6 mps 753 mmHg 89%
    03:00 +3°C° 0 mm 6 mps 752 mmHg 89%
    04:00 +4°C° 0 mm 7 mps 752 mmHg 88%
    05:00 +4°C° 0 mm 7 mps 751 mmHg 88%
    06:00 +4°C° 0 mm 7 mps 751 mmHg 88%
    07:00 +4°C° 0 mm 7 mps 751 mmHg 87%
    08:00 +5°C° 0 mm 7 mps 751 mmHg 86%
    09:00 +6°C° 0 mm 7 mps 750 mmHg 82%
    10:00 +8°C° 0 mm 6 mps 750 mmHg 78%
    11:00 +8°C° 0 mm 6 mps 750 mmHg 73%
    12:00 +9°C° 0 mm 6 mps 749 mmHg 72%
    13:00 +9°C° 0 mm 6 mps 749 mmHg 71%
    14:00 +9°C° 0 mm 6 mps 749 mmHg 69%
    15:00 +9°C° 0 mm 6 mps 748 mmHg 71%
    16:00 +9°C° 0 mm 5 mps 748 mmHg 72%
    17:00 +8°C° 0 mm 5 mps 748 mmHg 74%
    18:00 +8°C° 0 mm 5 mps 748 mmHg 76%
    19:00 +7°C° 0 mm 5 mps 748 mmHg 79%
    20:00 +7°C° 0 mm 5 mps 748 mmHg 82%
    21:00 +7°C° 0 mm 5 mps 748 mmHg 80%
    22:00 +7°C° 0 mm 5 mps 748 mmHg 79%
    23:00 +8°C° 0 mm 5 mps 748 mmHg 78%

    Tomorrow, 27 February, Thursday

    Time Temperature Precipitation Wind Pressure Humidity
    00:00 +7°C° 0 mm 5 mps 748 mmHg 81%
    01:00 +7°C° 0 mm 5 mps 748 mmHg 83%
    02:00 +7°C° 0 mm 5 mps 747 mmHg 86%
    03:00 +7°C° 0 mm 5 mps 747 mmHg 89%
    04:00 +6°C° 0 mm 5 mps 746 mmHg 91%
    05:00 +6°C° 0 mm 5 mps 746 mmHg 94%
    06:00 +6°C° 0 mm 5 mps 746 mmHg 94%
    07:00 +6°C° 0 mm 5 mps 746 mmHg 94%
    08:00 +7°C° 0 mm 5 mps 746 mmHg 94%
    09:00 +8°C° 0 mm 5 mps 746 mmHg 85%
    10:00 +10°C° 0 mm 6 mps 746 mmHg 75%
    11:00 +12°C° 0 mm 7 mps 746 mmHg 66%
    12:00 +13°C° 0 mm 8 mps 746 mmHg 59%
    13:00 +13°C° 0 mm 8 mps 746 mmHg 53%
    14:00 +15°C° 0 mm 9 mps 746 mmHg 47%
    15:00 +13°C° 0 mm 8 mps 746 mmHg 54%
    16:00 +11°C° 0 mm 7 mps 746 mmHg 60%
    17:00 +10°C° 0 mm 5 mps 746 mmHg 67%
    18:00 +8°C° 0.3 mm 5 mps 746 mmHg 72%
    19:00 +7°C° 0.3 mm 5 mps 746 mmHg 77%
    20:00 +6°C° 0.3 mm 5 mps 746 mmHg 81%
    21:00 +4°C° 1.1 mm 7 mps 746 mmHg 85%
    22:00 +2°C° 1.1 mm 8 mps 747 mmHg 88%
    23:00 0°C° 1.1 mm 10 mps 747 mmHg 92%

    Day after tomorrow, 28 February, Friday

    Time Temperature Precipitation Wind Pressure Humidity
    00:00 0°C° 1.2 mm 10 mps 748 mmHg 91%
    01:00 0°C° 1.2 mm 10 mps 748 mmHg 91%
    02:00 0°C° 1.2 mm 9 mps 749 mmHg 90%
    03:00 0°C° 0.2 mm 8 mps 750 mmHg 85%
    04:00 +2°C° 0.2 mm 7 mps 751 mmHg 79%
    05:00 +2°C° 0.2 mm 6 mps 752 mmHg 73%
    06:00 +2°C° 0 mm 6 mps 753 mmHg 74%
    07:00 +2°C° 0 mm 5 mps 754 mmHg 74%
    08:00 +1°C° 0 mm 5 mps 754 mmHg 74%
    09:00 +3°C° 0 mm 5 mps 755 mmHg 68%
    10:00 +5°C° 0 mm 5 mps 755 mmHg 61%
    11:00 +6°C° 0 mm 5 mps 755 mmHg 55%
    12:00 +6°C° 0 mm 5 mps 755 mmHg 54%
    13:00 +7°C° 0 mm 6 mps 755 mmHg 52%
    14:00 +7°C° 0 mm 6 mps 755 mmHg 51%
    15:00 +7°C° 0 mm 6 mps 755 mmHg 57%
    16:00 +5°C° 0 mm 7 mps 755 mmHg 62%
    17:00 +4°C° 0 mm 7 mps 754 mmHg 68%
    18:00 +4°C° 0 mm 7 mps 754 mmHg 69%
    19:00 +4°C° 0 mm 7 mps 755 mmHg 70%
    20:00 +4°C° 0 mm 7 mps 755 mmHg 71%
    21:00 +4°C° 0 mm 7 mps 754 mmHg 72%
    22:00 +4°C° 0 mm 7 mps 754 mmHg 72%
    23:00 +4°C° 0 mm 7 mps 754 mmHg 72%

    29 February, Saturday

    Time Temperature Precipitation Wind Pressure Humidity
    00:00 +4°C° 0.2 mm 6 mps 754 mmHg 75%
    01:00 +3°C° 0.2 mm 6 mps 754 mmHg 79%
    02:00 +3°C° 0.2 mm 5 mps 753 mmHg 83%
    03:00 +4°C° 0.1 mm 4 mps 753 mmHg 86%
    04:00 +3°C° 0.1 mm 3 mps 753 mmHg 89%
    05:00 +3°C° 0.1 mm 3 mps 753 mmHg 92%
    06:00 +3°C° 0 mm 4 mps 753 mmHg 88%
    07:00 +3°C° 0 mm 4 mps 754 mmHg 85%
    08:00 +2°C° 0 mm 5 mps 754 mmHg 81%
    09:00 +3°C° 0 mm 6 mps 755 mmHg 76%
    10:00 +4°C° 0 mm 7 mps 755 mmHg 70%
    11:00 +5°C° 0 mm 8 mps 755 mmHg 65%
    12:00 +5°C° 0 mm 8 mps 756 mmHg 64%
    13:00 +5°C° 0 mm 8 mps 756 mmHg 62%
    14:00 +5°C° 0 mm 8 mps 757 mmHg 61%
    15:00 +5°C° 0 mm 8 mps 757 mmHg 60%
    16:00 +4°C° 0 mm 7 mps 758 mmHg 59%
    17:00 +4°C° 0 mm 7 mps 758 mmHg 58%
    18:00 +3°C° 0 mm 6 mps 759 mmHg 61%
    19:00 +3°C° 0 mm 5 mps 760 mmHg 64%
    20:00 +3°C° 0 mm 4 mps 760 mmHg 68%
    21:00 +1°C° 0 mm 4 mps 761 mmHg 70%
    22:00 +1°C° 0 mm 4 mps 761 mmHg 72%
    23:00 0°C° 0 mm 4 mps 762 mmHg 75%

    1 March, Sunday

    Time Temperature Precipitation Wind Pressure Humidity
    00:00 +1°C° 0 mm 3 mps 762 mmHg 75%
    01:00 +1°C° 0 mm 3 mps 762 mmHg 75%
    02:00 +1°C° 0 mm 2 mps 762 mmHg 76%
    03:00 +2°C° 0 mm 1 mps 762 mmHg 76%
    04:00 +2°C° 0 mm 1 mps 762 mmHg 76%
    05:00 +1°C° 0 mm 0 mps 763 mmHg 76%
    06:00 +2°C° 0 mm 1 mps 763 mmHg 73%
    07:00 +3°C° 0 mm 1 mps 763 mmHg 71%
    08:00 +3°C° 0 mm 2 mps 763 mmHg 69%
    09:00 +3°C° 0 mm 3 mps 764 mmHg 64%
    10:00 +4°C° 0 mm 4 mps 764 mmHg 59%
    11:00 +6°C° 0 mm 4 mps 764 mmHg 54%
    12:00 +6°C° 0 mm 5 mps 763 mmHg 54%
    13:00 +7°C° 0 mm 6 mps 763 mmHg 54%
    14:00 +6°C° 0 mm 7 mps 763 mmHg 53%
    15:00 +6°C° 0 mm 7 mps 762 mmHg 58%
    16:00 +5°C° 0 mm 7 mps 762 mmHg 64%
    17:00 +5°C° 0 mm 7 mps 762 mmHg 69%
    18:00 +5°C° 0 mm 7 mps 762 mmHg 72%
    19:00 +4°C° 0 mm 7 mps 762 mmHg 76%
    20:00 +4°C° 0 mm 7 mps 762 mmHg 79%
    21:00 +4°C° 0 mm 7 mps 762 mmHg 78%
    22:00 +4°C° 0 mm 7 mps 762 mmHg 77%
    23:00 +4°C° 0 mm 7 mps 762 mmHg 76%

    2 March, Monday

    Time Temperature Precipitation Wind Pressure Humidity
    00:00 +4°C° 0 mm 7 mps 761 mmHg 75%
    01:00 +4°C° 0 mm 7 mps 761 mmHg 75%
    02:00 +4°C° 0 mm 7 mps 761 mmHg 75%
    03:00 +4°C° 0 mm 7 mps 760 mmHg 75%
    04:00 +3°C° 0 mm 7 mps 760 mmHg 76%
    05:00 +3°C° 0 mm 7 mps 760 mmHg 77%
    06:00 +4°C° 0 mm 8 mps 759 mmHg 76%
    07:00 +4°C° 0 mm 8 mps 759 mmHg 74%
    08:00 +3°C° 0 mm 9 mps 759 mmHg 73%
    09:00 +5°C° 0 mm 9 mps 758 mmHg 73%
    10:00 +5°C° 0 mm 9 mps 758 mmHg 72%
    11:00 +6°C° 0 mm 10 mps 758 mmHg 72%
    12:00 +6°C° 0 mm 10 mps 757 mmHg 73%
    13:00 +6°C° 0 mm 10 mps 757 mmHg 74%
    14:00 +6°C° 0 mm 9 mps 756 mmHg 74%
    15:00 +6°C° 0 mm 9 mps 756 mmHg 77%
    16:00 +5°C° 0 mm 9 mps 756 mmHg 79%
    17:00 +5°C° 0 mm 8 mps 755 mmHg 81%
    18:00 +5°C° 0.5 mm 8 mps 755 mmHg 84%
    19:00 +5°C° 0.5 mm 8 mps 755 mmHg 87%
    20:00 +5°C° 0.5 mm 7 mps 755 mmHg 90%
    21:00 +5°C° 0.8 mm 7 mps 755 mmHg 91%
    22:00 +5°C° 0.8 mm 7 mps 755 mmHg 93%
    23:00 +5°C° 0.8 mm 6 mps 755 mmHg 94%
    Show more